User: anonymous   Login
Location: Unspecified
(0.0000°N, 0.0000°E)
Time: 08:42:07
(UTC+00:00)
Language:

GONETS M 13 (M23) - Orbit

View from above orbital plane
View from above orbital plane
View from above satellite
View from above satellite

Ground track
Ground track

The orbit data is extracted from the following two-line orbital elements,

1 40554U 15020C   17293.74150371  .00000010  00000-0  00000+0 0  9996
2 40554  82.4883 200.6346 0014030  26.6286 333.5522 12.42893783116044
Epoch (UTC): 20 October 2017 17:47:45
Eccentricity: 0.0014030
inclination: 82.4883°
perigee height: 1483 km
apogee height: 1505 km
right ascension of ascending node: 200.6346°
argument of perigee: 26.6286°
revolutions per day: 12.42893783
mean anomaly at epoch: 333.5522°
orbit number at epoch: 11604

The dashed part of the orbit path shows where the satellite is in the earth's shadow,  

DLR